Time,TemperatureF,DewpointF,PressureIn,WindDirection,WindDirectionDegrees,WindSpeedMPH,WindSpeedGustMPH,Humidity,HourlyPrecipIn,Conditions,Clouds,dailyrainin,SoftwareType,DateUTC
2013-04-01 00:00:00,40.9,39.6,29.34,North,11,0.1,1.1,95,0.04,RA,SCT,0.00,WeatherDisplay:10.37,2013-04-01 04:00:00,
2013-04-01 00:05:00,40.9,39.6,29.34,NNE,13,0.9,1.1,95,0.03,RA,SCT,0.00,WeatherDisplay:10.37,2013-04-01 04:05:00,
2013-04-01 00:10:00,40.9,39.6,29.34,NNE,13,0.0,1.1,95,0.03,CLR,SCT,0.00,WeatherDisplay:10.37,2013-04-01 04:10:00,
2013-04-01 00:12:00,40.9,39.6,29.34,NNE,29,1.6,4.0,95,0.03,CLR,SCT,0.00,WeatherDisplay:10.37,2013-04-01 04:12:00,
2013-04-01 00:17:00,40.9,39.6,29.33,ENE,59,0.1,0.0,95,0.03,RA,SCT,0.01,WeatherDisplay:10.37,2013-04-01 04:17:00,
2013-04-01 00:22:00,40.8,39.5,29.33,ENE,59,0.0,1.1,95,0.02,RA,SCT,0.01,WeatherDisplay:10.37,2013-04-01 04:22:00,
2013-04-01 00:27:00,40.8,39.7,29.33,ENE,59,0.0,0.0,96,0.01,,SCT,0.01,WeatherDisplay:10.37,2013-04-01 04:27:00,
2013-04-01 00:32:00,40.7,39.6,29.33,ENE,59,0.0,1.1,96,0.01,CLR,SCT,0.01,WeatherDisplay:10.37,2013-04-01 04:32:00,
2013-04-01 00:37:00,40.7,39.6,29.34,ENE,59,0.8,2.3,96,0.01,CLR,SCT,0.01,WeatherDisplay:10.37,2013-04-01 04:37:00,
2013-04-01 00:42:00,40.7,39.6,29.33,ENE,59,0.3,1.1,96,0.01,CLR,SCT,0.01,WeatherDisplay:10.37,2013-04-01 04:42:00,
2013-04-01 00:47:00,40.7,39.6,29.33,ENE,59,0.0,0.0,96,0.01,CLR,SCT,0.01,WeatherDisplay:10.37,2013-04-01 04:47:00,
2013-04-01 00:52:00,40.7,39.6,29.33,ENE,59,0.3,1.1,96,0.01,CLR,SCT,0.01,WeatherDisplay:10.37,2013-04-01 04:52:00,
2013-04-01 00:58:00,40.7,39.6,29.33,ENE,59,0.4,1.0,96,0.01,CLR,SCT,0.01,WeatherDisplay:10.37,2013-04-01 04:58:00,
2013-04-01 01:03:00,40.7,39.6,29.32,NE,46,0.8,2.3,96,0.01,CLR,SCT,0.01,WeatherDisplay:10.37,2013-04-01 05:03:00,
2013-04-01 01:08:00,40.7,39.6,29.32,NE,46,0.7,2.3,96,0.01,CLR,SCT,0.01,WeatherDisplay:10.37,2013-04-01 05:08:00,
2013-04-01 01:13:00,40.6,39.5,29.32,North,9,0.8,1.1,96,0.01,CLR,SCT,0.01,WeatherDisplay:10.37,2013-04-01 05:13:00,
2013-04-01 01:18:00,40.6,39.5,29.32,North,9,0.7,2.3,96,0.00,CLR,SCT,0.01,WeatherDisplay:10.37,2013-04-01 05:18:00,
2013-04-01 01:23:00,40.6,39.5,29.32,North,9,0.3,1.1,96,0.00,CLR,SCT,0.01,WeatherDisplay:10.37,2013-04-01 05:23:00,
2013-04-01 01:28:00,40.6,39.5,29.32,North,9,0.0,0.0,96,0.00,CLR,SCT,0.01,WeatherDisplay:10.37,2013-04-01 05:28:00,
2013-04-01 01:33:00,40.6,39.5,29.32,North,9,0.0,1.1,96,0.00,CLR,SCT,0.01,WeatherDisplay:10.37,2013-04-01 05:33:00,
2013-04-01 01:38:00,40.6,39.8,29.32,North,9,0.8,2.3,97,0.00,CLR,SCT,0.01,WeatherDisplay:10.37,2013-04-01 05:38:00,
2013-04-01 01:43:00,40.6,39.8,29.32,West,273,0.2,1.1,97,0.00,CLR,SCT,0.01,WeatherDisplay:10.37,2013-04-01 05:43:00,
2013-04-01 01:48:00,40.6,39.8,29.32,West,274,0.0,0.0,97,0.00,CLR,SCT,0.01,WeatherDisplay:10.37,2013-04-01 05:48:00,
2013-04-01 01:53:00,40.5,39.7,29.32,West,274,0.2,1.1,97,0.00,CLR,SCT,0.01,WeatherDisplay:10.37,2013-04-01 05:53:00,
2013-04-01 01:58:00,40.5,39.7,29.32,West,274,0.0,1.1,97,0.00,CLR,SCT,0.01,WeatherDisplay:10.37,2013-04-01 05:58:00,
2013-04-01 02:03:00,40.5,39.7,29.31,West,274,0.2,1.1,97,0.00,CLR,SCT,0.01,WeatherDisplay:10.37,2013-04-01 06:03:00,
2013-04-01 02:08:00,40.5,39.7,29.31,West,274,0.4,1.1,97,0.00,CLR,SCT,0.01,WeatherDisplay:10.37,2013-04-01 06:08:00,
2013-04-01 02:13:00,40.5,39.7,29.32,West,274,0.8,2.3,97,0.00,CLR,SCT,0.01,WeatherDisplay:10.37,2013-04-01 06:13:00,
2013-04-01 02:18:00,40.5,39.7,29.31,West,274,0.4,1.1,97,0.00,CLR,SCT,0.01,WeatherDisplay:10.37,2013-04-01 06:18:00,
2013-04-01 02:23:00,40.5,39.7,29.31,West,274,0.8,2.3,97,0.00,CLR,SCT,0.01,WeatherDisplay:10.37,2013-04-01 06:23:00,
2013-04-01 02:28:00,40.4,39.6,29.31,West,274,0.5,1.1,97,0.00,CLR,SCT,0.01,WeatherDisplay:10.37,2013-04-01 06:28:00,
2013-04-01 02:33:00,40.4,39.6,29.31,West,274,0.2,1.1,97,0.00,CLR,SCT,0.01,WeatherDisplay:10.37,2013-04-01 06:33:00,
2013-04-01 02:38:00,40.4,39.6,29.32,West,274,0.1,1.1,97,0.00,CLR,SCT,0.01,WeatherDisplay:10.37,2013-04-01 06:38:00,
2013-04-01 02:43:00,40.5,39.7,29.32,West,274,0.3,1.1,97,0.00,CLR,SCT,0.01,WeatherDisplay:10.37,2013-04-01 06:43:00,
2013-04-01 02:48:00,40.5,39.7,29.32,West,274,0.5,1.1,97,0.00,CLR,SCT,0.01,WeatherDisplay:10.37,2013-04-01 06:48:00,
2013-04-01 02:53:00,40.5,39.7,29.31,West,274,0.6,2.3,97,0.00,CLR,SCT,0.01,WeatherDisplay:10.37,2013-04-01 06:53:00,
2013-04-01 02:58:00,40.5,39.7,29.31,West,274,0.0,1.1,97,0.00,CLR,SCT,0.01,WeatherDisplay:10.37,2013-04-01 06:58:00,
2013-04-01 03:03:00,40.4,39.6,29.31,West,274,0.0,0.0,97,0.00,CLR,SCT,0.01,WeatherDisplay:10.37,2013-04-01 07:03:00,
2013-04-01 03:08:00,40.4,39.6,29.31,West,274,0.0,0.0,97,0.00,CLR,SCT,0.01,WeatherDisplay:10.37,2013-04-01 07:08:00,
2013-04-01 03:13:00,40.4,39.6,29.31,West,274,0.3,1.1,97,0.00,CLR,SCT,0.01,WeatherDisplay:10.37,2013-04-01 07:13:00,
2013-04-01 03:18:00,40.4,39.6,29.32,West,274,0.5,1.1,97,0.00,CLR,SCT,0.01,WeatherDisplay:10.37,2013-04-01 07:18:00,
2013-04-01 03:23:00,40.4,39.6,29.32,West,274,0.2,1.1,97,0.00,CLR,SCT,0.01,WeatherDisplay:10.37,2013-04-01 07:23:00,
2013-04-01 03:28:00,40.4,39.6,29.32,West,274,0.0,0.0,97,0.00,CLR,SCT,0.01,WeatherDisplay:10.37,2013-04-01 07:28:00,
2013-04-01 03:33:00,40.4,39.6,29.32,West,274,0.1,1.1,97,0.00,CLR,SCT,0.01,WeatherDisplay:10.37,2013-04-01 07:33:00,
2013-04-01 03:38:00,40.4,39.6,29.32,West,274,0.0,1.0,97,0.00,CLR,SCT,0.01,WeatherDisplay:10.37,2013-04-01 07:38:00,
2013-04-01 03:43:00,40.4,39.6,29.32,West,274,0.4,1.1,97,0.00,CLR,SCT,0.01,WeatherDisplay:10.37,2013-04-01 07:43:00,
2013-04-01 03:48:00,40.4,39.6,29.32,West,274,0.0,0.0,97,0.00,CLR,SCT,0.01,WeatherDisplay:10.37,2013-04-01 07:48:00,
2013-04-01 03:53:00,40.4,39.6,29.32,West,274,0.0,0.0,97,0.00,CLR,SCT,0.01,WeatherDisplay:10.37,2013-04-01 07:53:00,
2013-04-01 03:58:00,40.4,39.6,29.32,West,274,0.0,0.0,97,0.00,CLR,SCT,0.01,WeatherDisplay:10.37,2013-04-01 07:58:00,
2013-04-01 04:03:00,40.4,39.6,29.33,West,274,0.6,2.3,97,0.00,CLR,SCT,0.01,WeatherDisplay:10.37,2013-04-01 08:03:00,
2013-04-01 04:08:00,40.4,39.6,29.33,West,274,0.0,1.1,97,0.00,CLR,SCT,0.01,WeatherDisplay:10.37,2013-04-01 08:08:00,
2013-04-01 04:13:00,40.4,39.6,29.33,West,274,0.1,1.1,97,0.00,CLR,SCT,0.01,WeatherDisplay:10.37,2013-04-01 08:13:00,
2013-04-01 04:18:00,40.4,39.6,29.33,West,274,0.1,1.1,97,0.00,CLR,SCT,0.01,WeatherDisplay:10.37,2013-04-01 08:18:00,
2013-04-01 04:23:00,40.5,39.7,29.33,West,274,0.1,1.1,97,0.00,CLR,SCT,0.01,WeatherDisplay:10.37,2013-04-01 08:23:00,
2013-04-01 04:28:00,40.6,39.8,29.33,SW,214,0.7,2.3,97,0.00,CLR,SCT,0.01,WeatherDisplay:10.37,2013-04-01 08:28:00,
2013-04-01 04:33:00,40.6,40.1,29.34,SSW,211,0.0,2.3,98,0.00,CLR,SCT,0.01,WeatherDisplay:10.37,2013-04-01 08:33:00,
2013-04-01 04:38:00,40.7,39.9,29.34,WSW,241,0.3,1.1,97,0.00,CLR,SCT,0.01,WeatherDisplay:10.37,2013-04-01 08:38:00,
2013-04-01 04:43:00,40.7,39.9,29.34,SW,223,0.4,1.1,97,0.00,CLR,SCT,0.01,WeatherDisplay:10.37,2013-04-01 08:43:00,
2013-04-01 04:48:00,40.8,40.0,29.34,SE,136,0.0,0.0,97,0.00,CLR,SCT,0.01,WeatherDisplay:10.37,2013-04-01 08:48:00,
2013-04-01 04:53:00,40.8,40.0,29.34,SE,136,0.0,0.0,97,0.00,CLR,SCT,0.01,WeatherDisplay:10.37,2013-04-01 08:53:00,
2013-04-01 04:58:00,40.8,40.0,29.34,South,180,0.2,1.1,97,0.00,CLR,SCT,0.01,WeatherDisplay:10.37,2013-04-01 08:58:00,
2013-04-01 05:03:00,40.8,40.0,29.34,SSW,192,0.5,1.1,97,0.00,CLR,SCT,0.01,WeatherDisplay:10.37,2013-04-01 09:03:00,
2013-04-01 05:08:00,40.9,40.1,29.34,SSW,192,0.0,0.0,97,0.00,CLR,SCT,0.01,WeatherDisplay:10.37,2013-04-01 09:08:00,
2013-04-01 05:13:00,40.9,40.1,29.34,SSW,192,0.0,0.0,97,0.00,CLR,SCT,0.01,WeatherDisplay:10.37,2013-04-01 09:13:00,
2013-04-01 05:18:00,40.9,40.1,29.34,SSW,192,0.0,0.0,97,0.00,CLR,SCT,0.01,WeatherDisplay:10.37,2013-04-01 09:18:00,
2013-04-01 05:23:00,41.0,40.2,29.34,SSW,192,0.2,0.0,97,0.00,CLR,SCT,0.01,WeatherDisplay:10.37,2013-04-01 09:23:00,
2013-04-01 05:28:00,41.0,40.2,29.34,SSW,192,0.0,0.0,97,0.00,CLR,SCT,0.01,WeatherDisplay:10.37,2013-04-01 09:28:00,
2013-04-01 05:33:00,40.9,40.1,29.35,SSW,192,0.0,0.0,97,0.00,CLR,SCT,0.01,WeatherDisplay:10.37,2013-04-01 09:33:00,
2013-04-01 05:38:00,40.9,40.1,29.35,SSW,192,0.0,0.0,97,0.00,CLR,SCT,0.01,WeatherDisplay:10.37,2013-04-01 09:38:00,
2013-04-01 05:43:00,40.9,40.1,29.35,SSW,192,0.0,0.0,97,0.00,CLR,SCT,0.01,WeatherDisplay:10.37,2013-04-01 09:43:00,
2013-04-01 05:49:00,40.9,40.1,29.35,WNW,294,0.0,0.0,97,0.00,CLR,SCT,0.01,WeatherDisplay:10.37,2013-04-01 09:49:00,
2013-04-01 05:54:00,40.8,40.0,29.35,WNW,294,0.0,0.0,97,0.00,CLR,SCT,0.01,WeatherDisplay:10.37,2013-04-01 09:54:00,
2013-04-01 05:59:00,40.8,40.0,29.35,WNW,294,0.5,2.3,97,0.00,CLR,SCT,0.01,WeatherDisplay:10.37,2013-04-01 09:59:00,
2013-04-01 06:04:00,40.6,40.1,29.35,WNW,294,0.2,1.1,98,0.00,CLR,SCT,0.01,WeatherDisplay:10.37,2013-04-01 10:04:00,
2013-04-01 06:09:00,40.4,39.9,29.35,SW,223,0.3,1.1,98,0.00,CLR,SCT,0.01,WeatherDisplay:10.37,2013-04-01 10:09:00,
2013-04-01 06:14:00,40.3,39.5,29.35,West,269,1.0,2.3,97,0.00,CLR,SCT,0.01,WeatherDisplay:10.37,2013-04-01 10:14:00,
2013-04-01 06:19:00,40.5,40.0,29.35,West,269,0.8,2.3,98,0.00,CLR,SCT,0.01,WeatherDisplay:10.37,2013-04-01 10:19:00,
2013-04-01 06:24:00,40.6,40.1,29.35,WNW,288,0.4,1.1,98,0.00,CLR,SCT,0.01,WeatherDisplay:10.37,2013-04-01 10:24:00,
2013-04-01 06:29:00,40.7,40.2,29.35,WNW,289,1.2,3.5,98,0.00,CLR,SCT,0.01,WeatherDisplay:10.37,2013-04-01 10:29:00,
2013-04-01 06:34:00,40.8,40.3,29.35,WNW,289,0.7,2.3,98,0.00,CLR,SCT,0.01,WeatherDisplay:10.37,2013-04-01 10:34:00,
2013-04-01 06:39:00,40.9,40.4,29.35,WNW,289,1.0,2.3,98,0.00,CLR,SCT,0.01,WeatherDisplay:10.37,2013-04-01 10:39:00,
2013-04-01 06:44:00,40.9,40.4,29.35,WNW,289,0.4,2.3,98,0.00,CLR,SCT,0.01,WeatherDisplay:10.37,2013-04-01 10:44:00,
2013-04-01 06:49:00,41.0,40.2,29.35,WNW,289,0.3,1.1,97,0.00,CLR,SCT,0.01,WeatherDisplay:10.37,2013-04-01 10:49:00,
2013-04-01 06:54:00,41.0,40.2,29.34,WNW,289,0.0,0.0,97,0.00,CLR,SCT,0.01,WeatherDisplay:10.37,2013-04-01 10:54:00,
2013-04-01 06:59:00,40.8,40.0,29.34,WNW,289,0.3,2.3,97,0.00,CLR,SCT,0.01,WeatherDisplay:10.37,2013-04-01 10:59:00,
2013-04-01 07:04:00,40.7,39.9,29.34,WNW,289,0.0,0.0,97,0.00,CLR,SCT,0.01,WeatherDisplay:10.37,2013-04-01 11:04:00,
2013-04-01 07:09:00,40.6,39.8,29.34,WNW,289,0.0,0.0,97,0.00,CLR,SCT,0.01,WeatherDisplay:10.37,2013-04-01 11:09:00,
2013-04-01 07:14:00,40.5,39.7,29.34,WNW,289,0.0,0.0,97,0.00,CLR,SCT,0.01,WeatherDisplay:10.37,2013-04-01 11:14:00,
2013-04-01 07:19:00,40.5,39.7,29.34,WNW,289,0.0,0.0,97,0.00,CLR,SCT,0.01,WeatherDisplay:10.37,2013-04-01 11:19:00,
2013-04-01 07:24:00,40.4,39.6,29.34,WNW,289,0.0,0.0,97,0.00,CLR,SCT,0.01,WeatherDisplay:10.37,2013-04-01 11:24:00,
2013-04-01 07:29:00,40.4,39.6,29.34,WNW,289,0.0,0.0,97,0.00,CLR,SCT,0.01,WeatherDisplay:10.37,2013-04-01 11:29:00,
2013-04-01 07:34:00,40.5,39.7,29.33,WNW,289,0.0,0.0,97,0.00,CLR,SCT,0.01,WeatherDisplay:10.37,2013-04-01 11:34:00,
2013-04-01 07:39:00,40.6,39.8,29.34,WNW,289,0.0,0.0,97,0.00,CLR,SCT,0.01,WeatherDisplay:10.37,2013-04-01 11:39:00,
2013-04-01 07:44:00,40.7,39.9,29.34,WNW,289,0.0,0.0,97,0.00,CLR,SCT,0.01,WeatherDisplay:10.37,2013-04-01 11:44:00,
2013-04-01 07:49:00,40.9,40.4,29.34,WNW,289,0.0,0.0,98,0.00,CLR,SCT,0.01,WeatherDisplay:10.37,2013-04-01 11:49:00,
2013-04-01 07:54:00,41.2,40.4,29.34,WNW,289,0.0,0.0,97,0.00,CLR,SCT,0.01,WeatherDisplay:10.37,2013-04-01 11:54:00,
2013-04-01 07:59:00,41.4,40.6,29.35,WNW,289,0.0,0.0,97,0.00,CLR,SCT,0.01,WeatherDisplay:10.37,2013-04-01 11:59:00,
2013-04-01 08:04:00,41.6,41.1,29.35,SSE,151,0.0,1.1,98,0.00,CLR,SCT,0.01,WeatherDisplay:10.37,2013-04-01 12:04:00,
2013-04-01 08:09:00,41.9,41.4,29.35,SSE,151,0.0,0.0,98,0.00,CLR,SCT,0.01,WeatherDisplay:10.37,2013-04-01 12:09:00,
2013-04-01 08:14:00,42.0,41.5,29.35,SSE,151,0.0,0.0,98,0.00,CLR,SCT,0.01,WeatherDisplay:10.37,2013-04-01 12:14:00,
2013-04-01 08:19:00,42.2,41.7,29.35,SSE,151,0.2,1.1,98,0.00,CLR,SCT,0.01,WeatherDisplay:10.37,2013-04-01 12:19:00,
2013-04-01 08:24:00,42.4,41.9,29.34,SSE,157,0.3,1.1,98,0.00,CLR,SCT,0.01,WeatherDisplay:10.37,2013-04-01 12:24:00,
2013-04-01 08:29:00,42.5,42.0,29.34,SSE,157,0.5,1.1,98,0.00,CLR,SCT,0.01,WeatherDisplay:10.37,2013-04-01 12:29:00,
2013-04-01 08:34:00,42.6,41.8,29.34,West,277,0.5,1.1,97,0.00,CLR,SCT,0.01,WeatherDisplay:10.37,2013-04-01 12:34:00,
2013-04-01 08:39:00,42.8,42.3,29.34,West,276,1.0,2.3,98,0.00,CLR,SCT,0.01,WeatherDisplay:10.37,2013-04-01 12:39:00,
2013-04-01 08:44:00,43.1,42.3,29.34,NW,309,0.3,1.1,97,0.00,CLR,SCT,0.01,WeatherDisplay:10.37,2013-04-01 12:44:00,
2013-04-01 08:49:00,43.4,42.6,29.34,NW,309,0.7,2.3,97,0.00,CLR,SCT,0.01,WeatherDisplay:10.37,2013-04-01 12:49:00,
2013-04-01 08:54:00,43.8,42.7,29.34,NW,307,1.2,2.3,96,0.00,CLR,SCT,0.01,WeatherDisplay:10.37,2013-04-01 12:54:00,
2013-04-01 08:59:00,44.3,43.0,29.34,NW,307,1.0,2.3,95,0.00,CLR,SCT,0.01,WeatherDisplay:10.37,2013-04-01 12:59:00,
2013-04-01 09:04:00,44.6,42.7,29.33,NW,323,1.7,3.5,93,0.00,CLR,SCT,0.01,WeatherDisplay:10.37,2013-04-01 13:04:00,
2013-04-01 09:09:00,44.8,42.6,29.34,NW,323,0.4,1.1,92,0.00,CLR,SCT,0.01,WeatherDisplay:10.37,2013-04-01 13:09:00,
2013-04-01 09:14:00,45.1,42.9,29.34,NW,318,0.6,3.0,92,0.00,CLR,SCT,0.01,WeatherDisplay:10.37,2013-04-01 13:14:00,
2013-04-01 09:19:00,45.7,42.9,29.34,NW,317,1.1,1.1,90,0.00,CLR,SCT,0.01,WeatherDisplay:10.37,2013-04-01 13:19:00,
2013-04-01 09:24:00,46.2,42.8,29.34,NW,317,1.4,2.3,88,0.00,CLR,SCT,0.01,WeatherDisplay:10.37,2013-04-01 13:24:00,
2013-04-01 09:29:00,46.7,43.6,29.33,SSW,198,1.1,3.5,89,0.00,CLR,SCT,0.01,WeatherDisplay:10.37,2013-04-01 13:29:00,
2013-04-01 09:34:00,46.9,42.9,29.34,SSW,205,1.4,3.5,86,0.00,CLR,SCT,0.01,WeatherDisplay:10.37,2013-04-01 13:34:00,
2013-04-01 09:39:00,46.8,42.5,29.33,SSE,157,0.7,2.3,85,0.00,CLR,SCT,0.01,WeatherDisplay:10.37,2013-04-01 13:39:00,
2013-04-01 09:44:00,47.3,43.0,29.33,SE,132,2.6,5.8,85,0.00,CLR,SCT,0.01,WeatherDisplay:10.37,2013-04-01 13:44:00,
2013-04-01 09:49:00,47.9,43.6,29.33,South,171,1.2,3.5,85,0.00,CLR,SCT,0.01,WeatherDisplay:10.37,2013-04-01 13:49:00,
2013-04-01 09:54:00,48.1,43.5,29.33,South,176,2.6,3.5,84,0.00,CLR,SCT,0.01,WeatherDisplay:10.37,2013-04-01 13:54:00,
2013-04-01 09:59:00,48.6,43.7,29.33,SSE,164,0.3,2.3,83,0.00,CLR,SCT,0.01,WeatherDisplay:10.37,2013-04-01 13:59:00,
2013-04-01 10:04:00,48.7,43.1,29.33,SE,135,4.0,5.8,81,0.00,CLR,SCT,0.01,WeatherDisplay:10.37,2013-04-01 14:04:00,
2013-04-01 10:09:00,48.1,43.2,29.32,SW,228,0.9,3.5,83,0.00,CLR,SCT,0.01,WeatherDisplay:10.37,2013-04-01 14:09:00,
2013-04-01 10:14:00,48.3,44.0,29.32,WNW,296,1.2,4.0,85,0.00,CLR,SCT,0.01,WeatherDisplay:10.37,2013-04-01 14:14:00,
2013-04-01 10:19:00,48.5,43.9,29.32,SE,146,2.6,3.5,84,0.00,CLR,SCT,0.01,WeatherDisplay:10.37,2013-04-01 14:19:00,
2013-04-01 10:24:00,48.7,43.5,29.32,SSE,153,3.0,6.0,82,0.00,CLR,SCT,0.01,WeatherDisplay:10.37,2013-04-01 14:24:00,
2013-04-01 10:29:00,48.8,43.5,29.32,South,169,2.2,4.0,82,0.00,CLR,SCT,0.01,WeatherDisplay:10.37,2013-04-01 14:29:00,
2013-04-01 10:34:00,48.7,43.5,29.32,SE,145,3.6,4.6,82,0.00,CLR,SCT,0.01,WeatherDisplay:10.37,2013-04-01 14:34:00,
2013-04-01 10:39:00,48.9,43.0,29.32,South,175,2.0,3.5,80,0.00,CLR,SCT,0.01,WeatherDisplay:10.37,2013-04-01 14:39:00,
2013-04-01 10:44:00,49.0,43.4,29.32,SSW,211,1.3,5.8,81,0.00,CLR,SCT,0.01,WeatherDisplay:10.37,2013-04-01 14:44:00,
2013-04-01 10:49:00,49.7,43.8,29.32,SSW,197,2.5,3.5,80,0.01,RA,SCT,0.02,WeatherDisplay:10.37,2013-04-01 14:49:00,
2013-04-01 10:54:00,50.9,43.9,29.31,SSE,163,2.3,5.8,77,0.01,RA,SCT,0.02,WeatherDisplay:10.37,2013-04-01 14:54:00,
2013-04-01 10:59:00,50.7,43.1,29.31,SW,217,1.5,5.8,75,0.01,,SCT,0.02,WeatherDisplay:10.37,2013-04-01 14:59:00,
2013-04-01 11:04:00,51.2,43.9,29.31,SW,222,2.9,4.6,76,0.01,CLR,SCT,0.02,WeatherDisplay:10.37,2013-04-01 15:04:00,
2013-04-01 11:09:00,51.3,43.3,29.31,SW,227,2.4,4.6,74,0.01,CLR,SCT,0.02,WeatherDisplay:10.37,2013-04-01 15:09:00,
2013-04-01 11:14:00,51.3,43.3,29.31,West,263,1.8,4.6,74,0.01,CLR,SCT,0.02,WeatherDisplay:10.37,2013-04-01 15:14:00,
2013-04-01 11:19:00,51.8,43.4,29.31,South,175,3.3,3.5,73,0.01,CLR,SCT,0.02,WeatherDisplay:10.37,2013-04-01 15:19:00,
2013-04-01 11:24:00,52.1,43.3,29.31,WSW,258,4.5,8.1,72,0.01,CLR,SCT,0.02,WeatherDisplay:10.37,2013-04-01 15:24:00,
2013-04-01 11:29:00,52.0,43.3,29.31,South,185,1.2,2.3,72,0.01,CLR,SCT,0.02,WeatherDisplay:10.37,2013-04-01 15:29:00,
2013-04-01 11:34:00,52.4,43.6,29.31,SSE,153,1.8,3.5,72,0.01,CLR,SCT,0.02,WeatherDisplay:10.37,2013-04-01 15:34:00,
2013-04-01 11:39:00,52.4,43.3,29.30,WNW,284,3.6,5.8,71,0.01,CLR,SCT,0.02,WeatherDisplay:10.37,2013-04-01 15:39:00,
2013-04-01 11:44:00,51.9,42.8,29.30,South,174,2.5,3.5,71,0.01,CLR,SCT,0.02,WeatherDisplay:10.37,2013-04-01 15:44:00,
2013-04-01 11:49:00,52.1,43.0,29.30,SSE,149,1.5,3.5,71,0.00,CLR,SCT,0.02,WeatherDisplay:10.37,2013-04-01 15:49:00,
2013-04-01 11:54:00,52.6,43.5,29.30,WNW,295,1.5,4.6,71,0.00,CLR,SCT,0.02,WeatherDisplay:10.37,2013-04-01 15:54:00,
2013-04-01 11:59:00,53.1,43.9,29.30,SSW,202,0.5,2.3,71,0.00,CLR,SCT,0.02,WeatherDisplay:10.37,2013-04-01 15:59:00,
2013-04-01 12:04:00,54.2,43.5,29.30,West,259,2.1,2.3,67,0.00,CLR,SCT,0.02,WeatherDisplay:10.37,2013-04-01 16:04:00,
2013-04-01 12:09:00,54.3,43.2,29.29,SW,222,1.8,4.6,66,0.00,CLR,SCT,0.02,WeatherDisplay:10.37,2013-04-01 16:09:00,
2013-04-01 12:14:00,55.1,44.3,29.30,WSW,250,1.6,4.0,67,0.00,CLR,SCT,0.02,WeatherDisplay:10.37,2013-04-01 16:14:00,
2013-04-01 12:19:00,55.8,43.4,29.30,SW,227,1.0,4.0,63,0.00,CLR,SCT,0.02,WeatherDisplay:10.37,2013-04-01 16:19:00,
2013-04-01 12:24:00,55.4,42.2,29.30,West,275,6.4,9.0,61,0.00,CLR,SCT,0.02,WeatherDisplay:10.37,2013-04-01 16:24:00,
2013-04-01 12:29:00,54.2,42.7,29.29,WSW,256,5.1,5.8,65,0.00,CLR,SCT,0.02,WeatherDisplay:10.37,2013-04-01 16:29:00,
2013-04-01 12:34:00,54.5,42.6,29.29,WNW,293,1.9,3.5,64,0.00,CLR,SCT,0.02,WeatherDisplay:10.37,2013-04-01 16:34:00,
2013-04-01 12:39:00,54.5,41.7,29.29,SSW,195,5.6,9.2,62,0.00,CLR,SCT,0.02,WeatherDisplay:10.37,2013-04-01 16:39:00,
2013-04-01 12:44:00,54.7,41.9,29.29,WSW,240,5.0,8.1,62,0.00,CLR,SCT,0.02,WeatherDisplay:10.37,2013-04-01 16:44:00,
2013-04-01 12:49:00,55.1,41.9,29.29,West,268,0.5,4.6,61,0.00,CLR,SCT,0.02,WeatherDisplay:10.37,2013-04-01 16:49:00,
2013-04-01 12:54:00,55.3,42.1,29.29,SSW,200,5.3,6.9,61,0.00,CLR,SCT,0.02,WeatherDisplay:10.37,2013-04-01 16:54:00,
2013-04-01 12:59:00,54.9,41.7,29.28,SW,231,1.8,3.5,61,0.00,CLR,SCT,0.02,WeatherDisplay:10.37,2013-04-01 16:59:00,
2013-04-01 13:04:00,55.0,42.2,29.28,WSW,242,2.9,4.6,62,0.00,CLR,SCT,0.02,WeatherDisplay:10.37,2013-04-01 17:04:00,
2013-04-01 13:09:00,55.1,41.9,29.28,South,176,1.7,4.6,61,0.00,CLR,SCT,0.02,WeatherDisplay:10.37,2013-04-01 17:09:00,
2013-04-01 13:14:00,55.6,41.9,29.27,South,188,1.5,4.6,60,0.00,CLR,SCT,0.02,WeatherDisplay:10.37,2013-04-01 17:14:00,
2013-04-01 13:19:00,56.7,42.1,29.27,West,275,5.2,5.2,58,0.00,CLR,SCT,0.02,WeatherDisplay:10.37,2013-04-01 17:19:00,
2013-04-01 13:24:00,57.5,41.9,29.27,SW,217,3.3,9.2,56,0.00,CLR,SCT,0.02,WeatherDisplay:10.37,2013-04-01 17:24:00,
2013-04-01 13:29:00,57.0,41.4,29.26,WSW,248,4.5,6.0,56,0.00,CLR,SCT,0.02,WeatherDisplay:10.37,2013-04-01 17:29:00,
2013-04-01 13:34:00,56.2,41.2,29.27,WSW,244,2.6,5.0,57,0.00,CLR,SCT,0.02,WeatherDisplay:10.37,2013-04-01 17:34:00,
2013-04-01 13:39:00,55.7,41.6,29.26,West,280,2.8,5.0,59,0.00,CLR,SCT,0.02,WeatherDisplay:10.37,2013-04-01 17:39:00,
2013-04-01 13:44:00,55.1,43.1,29.26,NW,322,5.1,9.2,64,0.00,CLR,SCT,0.02,WeatherDisplay:10.37,2013-04-01 17:44:00,
2013-04-01 13:49:00,53.2,44.0,29.26,WNW,302,3.2,5.8,71,0.00,CLR,SCT,0.02,WeatherDisplay:10.37,2013-04-01 17:49:00,
2013-04-01 13:54:00,51.5,42.8,29.26,West,265,5.0,9.2,72,0.00,CLR,SCT,0.02,WeatherDisplay:10.37,2013-04-01 17:54:00,
2013-04-01 13:59:00,50.1,43.2,29.27,NW,304,5.4,10.4,77,0.01,RA,SCT,0.04,WeatherDisplay:10.37,2013-04-01 17:59:00,
2013-04-01 14:04:00,49.0,44.1,29.27,WNW,297,4.2,4.6,83,0.02,RA,SCT,0.04,WeatherDisplay:10.37,2013-04-01 18:04:00,
2013-04-01 14:09:00,48.4,43.8,29.28,NW,311,3.6,8.0,84,0.03,RA,SCT,0.05,WeatherDisplay:10.37,2013-04-01 18:09:00,
2013-04-01 14:14:00,48.1,43.8,29.28,NW,304,4.1,6.9,85,0.03,RA,SCT,0.05,WeatherDisplay:10.37,2013-04-01 18:14:00,
2013-04-01 14:19:00,47.9,44.5,29.28,WNW,300,1.9,3.5,88,0.03,,SCT,0.05,WeatherDisplay:10.37,2013-04-01 18:19:00,
2013-04-01 14:24:00,47.9,44.5,29.28,WNW,302,1.8,3.5,88,0.03,CLR,SCT,0.05,WeatherDisplay:10.37,2013-04-01 18:24:00,
2013-04-01 14:29:00,48.1,44.1,29.28,NNW,331,3.5,7.0,86,0.03,CLR,SCT,0.05,WeatherDisplay:10.37,2013-04-01 18:29:00,
2013-04-01 14:34:00,49.1,42.5,29.28,SW,222,3.2,5.8,78,0.03,CLR,SCT,0.05,WeatherDisplay:10.37,2013-04-01 18:34:00,
2013-04-01 14:39:00,50.1,43.5,29.29,West,277,3.3,6.9,78,0.03,CLR,SCT,0.05,WeatherDisplay:10.37,2013-04-01 18:39:00,
2013-04-01 14:44:00,50.1,42.8,29.29,NW,325,1.3,3.0,76,0.03,CLR,SCT,0.05,WeatherDisplay:10.37,2013-04-01 18:44:00,
2013-04-01 14:49:00,49.9,41.2,29.29,West,277,3.7,4.6,72,0.03,CLR,SCT,0.05,WeatherDisplay:10.37,2013-04-01 18:49:00,
2013-04-01 14:54:00,49.4,40.7,29.30,SW,236,1.5,4.6,72,0.03,CLR,SCT,0.05,WeatherDisplay:10.37,2013-04-01 18:54:00,
2013-04-01 14:59:00,49.1,40.5,29.30,WNW,286,3.5,6.9,72,0.02,CLR,SCT,0.05,WeatherDisplay:10.37,2013-04-01 18:59:00,
2013-04-01 15:04:00,48.6,40.3,29.30,NW,321,4.1,10.0,73,0.01,CLR,SCT,0.05,WeatherDisplay:10.37,2013-04-01 19:04:00,
2013-04-01 15:09:00,47.8,39.6,29.30,WNW,296,3.7,6.9,73,0.00,CLR,SCT,0.05,WeatherDisplay:10.37,2013-04-01 19:09:00,
2013-04-01 15:14:00,47.5,40.3,29.30,West,264,4.3,5.8,76,0.00,CLR,SCT,0.05,WeatherDisplay:10.37,2013-04-01 19:14:00,
2013-04-01 15:19:00,47.6,41.1,29.30,SW,232,5.1,8.1,78,0.00,CLR,SCT,0.05,WeatherDisplay:10.37,2013-04-01 19:19:00,
2013-04-01 15:24:00,48.0,41.1,29.30,NNE,12,2.9,7.0,77,0.00,CLR,SCT,0.05,WeatherDisplay:10.37,2013-04-01 19:24:00,
2013-04-01 15:29:00,48.1,40.9,29.30,WSW,240,4.5,5.0,76,0.00,CLR,SCT,0.05,WeatherDisplay:10.37,2013-04-01 19:29:00,
2013-04-01 15:34:00,48.3,41.1,29.30,NNW,347,4.7,10.4,76,0.00,CLR,SCT,0.05,WeatherDisplay:10.37,2013-04-01 19:34:00,
2013-04-01 15:39:00,48.3,39.7,29.30,West,277,7.4,11.5,72,0.00,CLR,SCT,0.05,WeatherDisplay:10.37,2013-04-01 19:39:00,
2013-04-01 15:44:00,47.8,38.8,29.30,NW,325,7.2,11.5,71,0.00,CLR,SCT,0.05,WeatherDisplay:10.37,2013-04-01 19:44:00,
2013-04-01 15:49:00,47.5,39.6,29.31,NNW,342,6.0,11.5,74,0.00,CLR,SCT,0.05,WeatherDisplay:10.37,2013-04-01 19:49:00,
2013-04-01 15:54:00,47.2,39.7,29.31,NW,315,5.1,9.2,75,0.00,CLR,SCT,0.05,WeatherDisplay:10.37,2013-04-01 19:54:00,
2013-04-01 15:59:00,46.8,38.9,29.32,WSW,254,6.7,11.5,74,0.00,CLR,SCT,0.05,WeatherDisplay:10.37,2013-04-01 19:59:00,
2013-04-01 16:04:00,46.4,38.2,29.33,NNW,335,5.8,8.1,73,0.00,CLR,SCT,0.05,WeatherDisplay:10.37,2013-04-01 20:04:00,
2013-04-01 16:09:00,45.6,36.7,29.33,WNW,298,6.0,10.4,71,0.00,CLR,SCT,0.05,WeatherDisplay:10.37,2013-04-01 20:09:00,
2013-04-01 16:14:00,45.0,36.5,29.33,WNW,295,7.2,12.7,72,0.00,CLR,SCT,0.05,WeatherDisplay:10.37,2013-04-01 20:14:00,
2013-04-01 16:19:00,44.2,35.4,29.34,WNW,293,4.6,8.1,71,0.00,CLR,SCT,0.05,WeatherDisplay:10.37,2013-04-01 20:19:00,
2013-04-01 16:24:00,43.8,34.6,29.34,West,276,5.3,11.5,70,0.00,CLR,SCT,0.05,WeatherDisplay:10.37,2013-04-01 20:24:00,
2013-04-01 16:29:00,43.4,33.2,29.34,WSW,251,5.8,9.2,67,0.00,CLR,SCT,0.05,WeatherDisplay:10.37,2013-04-01 20:29:00,
2013-04-01 16:34:00,43.3,33.1,29.34,WNW,298,4.8,8.0,67,0.00,CLR,SCT,0.05,WeatherDisplay:10.37,2013-04-01 20:34:00,
2013-04-01 16:39:00,43.5,34.0,29.34,SW,233,4.6,5.8,69,0.00,CLR,SCT,0.05,WeatherDisplay:10.37,2013-04-01 20:39:00,
2013-04-01 16:44:00,44.0,33.0,29.34,West,263,4.7,4.7,65,0.00,CLR,SCT,0.05,WeatherDisplay:10.37,2013-04-01 20:44:00,
2013-04-01 16:49:00,43.8,32.4,29.35,WNW,282,3.9,8.1,64,0.00,CLR,SCT,0.05,WeatherDisplay:10.37,2013-04-01 20:49:00,
2013-04-01 16:54:00,43.4,33.2,29.35,WNW,284,5.1,9.2,67,0.00,CLR,SCT,0.05,WeatherDisplay:10.37,2013-04-01 20:54:00,
2013-04-01 16:59:00,42.7,32.5,29.35,WSW,242,6.2,9.2,67,0.00,CLR,SCT,0.05,WeatherDisplay:10.37,2013-04-01 20:59:00,
2013-04-01 17:04:00,42.2,32.0,29.36,WNW,289,4.8,6.9,67,0.00,CLR,SCT,0.05,WeatherDisplay:10.37,2013-04-01 21:04:00,
2013-04-01 17:09:00,41.9,31.7,29.36,NW,319,4.3,6.9,67,0.00,CLR,SCT,0.05,WeatherDisplay:10.37,2013-04-01 21:09:00,
2013-04-01 17:14:00,41.9,31.7,29.37,West,269,3.9,8.1,67,0.00,CLR,SCT,0.05,WeatherDisplay:10.37,2013-04-01 21:14:00,
2013-04-01 17:19:00,41.8,31.3,29.37,WNW,291,4.8,6.0,66,0.00,CLR,SCT,0.05,WeatherDisplay:10.37,2013-04-01 21:19:00,
2013-04-01 17:24:00,42.0,32.2,29.37,NNW,341,1.6,4.6,68,0.00,CLR,SCT,0.05,WeatherDisplay:10.37,2013-04-01 21:24:00,
2013-04-01 17:29:00,42.2,31.6,29.37,West,276,2.7,5.8,66,0.00,CLR,SCT,0.05,WeatherDisplay:10.37,2013-04-01 21:29:00,
2013-04-01 17:34:00,42.4,31.8,29.36,WNW,294,3.5,5.8,66,0.00,CLR,SCT,0.05,WeatherDisplay:10.37,2013-04-01 21:34:00,
2013-04-01 17:39:00,42.4,31.8,29.36,WNW,298,4.6,9.2,66,0.00,CLR,SCT,0.05,WeatherDisplay:10.37,2013-04-01 21:39:00,
2013-04-01 17:44:00,42.2,32.4,29.36,NNW,333,3.9,5.8,68,0.00,CLR,SCT,0.05,WeatherDisplay:10.37,2013-04-01 21:44:00,
2013-04-01 17:49:00,41.8,32.4,29.37,North,355,3.4,6.9,69,0.00,CLR,SCT,0.05,WeatherDisplay:10.37,2013-04-01 21:49:00,
2013-04-01 17:54:00,41.5,32.4,29.37,NW,321,2.8,3.5,70,0.00,CLR,SCT,0.05,WeatherDisplay:10.37,2013-04-01 21:54:00,
2013-04-01 17:59:00,41.3,31.5,29.36,WNW,295,4.1,5.8,68,0.00,CLR,SCT,0.05,WeatherDisplay:10.37,2013-04-01 21:59:00,
2013-04-01 18:04:00,41.3,31.5,29.37,NW,319,5.0,5.8,68,0.00,CLR,SCT,0.05,WeatherDisplay:10.37,2013-04-01 22:04:00,
2013-04-01 18:09:00,41.2,31.4,29.37,NW,307,2.0,3.5,68,0.00,CLR,SCT,0.05,WeatherDisplay:10.37,2013-04-01 22:09:00,
2013-04-01 18:14:00,41.2,31.4,29.38,WNW,300,2.3,3.5,68,0.00,CLR,SCT,0.05,WeatherDisplay:10.37,2013-04-01 22:14:00,
2013-04-01 18:19:00,41.5,31.4,29.38,NW,320,4.0,8.1,67,0.00,CLR,SCT,0.05,WeatherDisplay:10.37,2013-04-01 22:19:00,
2013-04-01 18:24:00,41.7,30.8,29.38,NW,317,5.2,6.9,65,0.00,CLR,SCT,0.05,WeatherDisplay:10.37,2013-04-01 22:24:00,
2013-04-01 18:29:00,41.5,31.0,29.38,NW,312,1.6,3.5,66,0.00,CLR,SCT,0.05,WeatherDisplay:10.37,2013-04-01 22:29:00,
2013-04-01 18:34:00,41.3,30.4,29.38,NNW,330,3.9,7.0,65,0.00,CLR,SCT,0.05,WeatherDisplay:10.37,2013-04-01 22:34:00,
2013-04-01 18:39:00,41.1,29.8,29.38,NW,323,5.7,10.4,64,0.00,CLR,SCT,0.05,WeatherDisplay:10.37,2013-04-01 22:39:00,
2013-04-01 18:44:00,41.1,30.2,29.39,NNW,333,3.6,5.0,65,0.00,CLR,SCT,0.05,WeatherDisplay:10.37,2013-04-01 22:44:00,
2013-04-01 18:49:00,41.0,30.1,29.39,NNW,329,2.9,5.8,65,0.00,CLR,SCT,0.05,WeatherDisplay:10.37,2013-04-01 22:49:00,
2013-04-01 18:54:00,40.7,29.8,29.39,North,349,4.0,5.8,65,0.00,CLR,SCT,0.05,WeatherDisplay:10.37,2013-04-01 22:54:00,
2013-04-01 18:59:00,40.4,29.6,29.39,NNW,335,3.7,4.6,65,0.00,CLR,SCT,0.05,WeatherDisplay:10.37,2013-04-01 22:59:00,
2013-04-01 19:04:00,40.1,29.6,29.39,NW,311,2.0,3.5,66,0.00,CLR,SCT,0.05,WeatherDisplay:10.37,2013-04-01 23:04:00,
2013-04-01 19:09:00,40.0,28.8,29.39,NW,323,4.9,5.8,64,0.00,CLR,SCT,0.05,WeatherDisplay:10.37,2013-04-01 23:09:00,
2013-04-01 19:14:00,39.9,28.7,29.39,NW,311,5.5,6.9,64,0.00,CLR,SCT,0.05,WeatherDisplay:10.37,2013-04-01 23:14:00,
2013-04-01 19:19:00,39.8,27.8,29.40,NW,320,4.7,8.1,62,0.00,CLR,SCT,0.05,WeatherDisplay:10.37,2013-04-01 23:19:00,
2013-04-01 19:24:00,39.8,27.0,29.40,WNW,302,4.5,6.9,60,0.00,CLR,SCT,0.05,WeatherDisplay:10.37,2013-04-01 23:24:00,
2013-04-01 19:29:00,39.6,27.6,29.40,NW,311,3.4,4.6,62,0.00,CLR,SCT,0.05,WeatherDisplay:10.37,2013-04-01 23:29:00,
2013-04-01 19:34:00,39.3,23.6,29.41,WNW,294,7.3,10.4,53,0.00,CLR,SCT,0.05,WeatherDisplay:10.37,2013-04-01 23:34:00,
2013-04-01 19:39:00,39.3,24.0,29.41,West,277,4.2,8.1,54,0.00,CLR,SCT,0.05,WeatherDisplay:10.37,2013-04-01 23:39:00,
2013-04-01 19:44:00,38.8,23.6,29.42,WNW,292,4.1,8.1,54,0.00,CLR,SCT,0.05,WeatherDisplay:10.37,2013-04-01 23:44:00,
2013-04-01 19:49:00,38.6,21.5,29.42,WNW,294,6.1,11.5,50,0.00,CLR,SCT,0.05,WeatherDisplay:10.37,2013-04-01 23:49:00,
2013-04-01 19:54:00,38.4,20.4,29.42,WNW,286,4.9,10.4,48,0.00,CLR,SCT,0.05,WeatherDisplay:10.37,2013-04-01 23:54:00,
2013-04-01 19:59:00,38.1,20.1,29.43,WNW,284,6.2,10.4,48,0.00,CLR,SCT,0.05,WeatherDisplay:10.37,2013-04-01 23:59:00,
2013-04-01 20:04:00,37.9,19.4,29.44,WNW,293,4.9,8.1,47,0.00,CLR,SCT,0.05,WeatherDisplay:10.37,2013-04-02 00:04:00,
2013-04-01 20:09:00,37.6,18.2,29.44,WNW,290,5.8,8.1,45,0.00,CLR,SCT,0.05,WeatherDisplay:10.37,2013-04-02 00:09:00,
2013-04-01 20:14:00,37.6,18.7,29.44,WNW,301,4.8,11.5,46,0.00,CLR,SCT,0.05,WeatherDisplay:10.37,2013-04-02 00:14:00,
2013-04-01 20:19:00,37.4,18.5,29.45,WNW,294,6.9,9.2,46,0.00,CLR,SCT,0.05,WeatherDisplay:10.37,2013-04-02 00:19:00,
2013-04-01 20:24:00,37.2,18.3,29.45,NW,313,4.9,5.8,46,0.00,CLR,SCT,0.05,WeatherDisplay:10.37,2013-04-02 00:24:00,
2013-04-01 20:29:00,36.8,19.4,29.45,NW,304,5.3,5.8,49,0.00,CLR,SCT,0.05,WeatherDisplay:10.37,2013-04-02 00:29:00,
2013-04-01 20:34:00,36.9,19.0,29.46,West,265,3.4,6.9,48,0.00,CLR,SCT,0.05,WeatherDisplay:10.37,2013-04-02 00:34:00,
2013-04-01 20:39:00,36.8,17.4,29.46,NW,308,6.0,9.2,45,0.00,CLR,SCT,0.05,WeatherDisplay:10.37,2013-04-02 00:39:00,
2013-04-01 20:44:00,36.6,17.2,29.46,NW,309,4.4,8.1,45,0.00,CLR,SCT,0.05,WeatherDisplay:10.37,2013-04-02 00:44:00,
2013-04-01 20:49:00,36.3,16.4,29.47,WNW,292,2.2,5.8,44,0.00,CLR,SCT,0.05,WeatherDisplay:10.37,2013-04-02 00:49:00,
2013-04-01 20:54:00,36.0,16.2,29.47,WNW,285,3.4,6.9,44,0.00,CLR,SCT,0.05,WeatherDisplay:10.37,2013-04-02 00:54:00,
2013-04-01 20:59:00,35.7,15.9,29.47,West,281,5.4,7.0,44,0.00,CLR,SCT,0.05,WeatherDisplay:10.37,2013-04-02 00:59:00,
2013-04-01 21:04:00,35.7,15.4,29.47,West,272,5.1,7.0,43,0.00,CLR,SCT,0.05,WeatherDisplay:10.37,2013-04-02 01:04:00,
2013-04-01 21:09:00,35.6,14.7,29.48,WSW,250,3.7,5.8,42,0.00,CLR,SCT,0.05,WeatherDisplay:10.37,2013-04-02 01:09:00,
2013-04-01 21:14:00,35.3,15.5,29.48,NNW,338,3.5,5.8,44,0.00,CLR,SCT,0.05,WeatherDisplay:10.37,2013-04-02 01:14:00,
2013-04-01 21:19:00,35.1,15.3,29.49,NNW,331,2.8,4.0,44,0.00,CLR,SCT,0.05,WeatherDisplay:10.37,2013-04-02 01:19:00,
2013-04-01 21:24:00,34.9,15.7,29.49,WNW,299,3.0,6.9,45,0.00,CLR,SCT,0.05,WeatherDisplay:10.37,2013-04-02 01:24:00,
2013-04-01 21:29:00,34.6,15.9,29.50,WNW,295,3.5,6.0,46,0.00,CLR,SCT,0.05,WeatherDisplay:10.37,2013-04-02 01:29:00,
2013-04-01 21:34:00,34.4,15.2,29.49,NNW,340,1.1,3.5,45,0.00,CLR,SCT,0.05,WeatherDisplay:10.37,2013-04-02 01:34:00,
2013-04-01 21:39:00,34.2,15.0,29.50,WNW,287,1.3,3.5,45,0.00,CLR,SCT,0.05,WeatherDisplay:10.37,2013-04-02 01:39:00,
2013-04-01 21:44:00,34.1,14.4,29.50,NW,326,4.7,6.9,44,0.00,CLR,SCT,0.05,WeatherDisplay:10.37,2013-04-02 01:44:00,
2013-04-01 21:49:00,33.9,14.3,29.50,NW,305,4.2,6.0,44,0.00,CLR,SCT,0.05,WeatherDisplay:10.37,2013-04-02 01:49:00,
2013-04-01 21:54:00,34.0,13.3,29.50,WSW,240,7.0,13.8,42,0.00,CLR,SCT,0.05,WeatherDisplay:10.37,2013-04-02 01:54:00,
2013-04-01 21:59:00,34.0,14.3,29.50,WNW,289,4.7,6.9,44,0.00,CLR,SCT,0.05,WeatherDisplay:10.37,2013-04-02 01:59:00,
2013-04-01 22:04:00,33.9,13.2,29.51,NW,309,5.7,9.2,42,0.00,CLR,SCT,0.05,WeatherDisplay:10.37,2013-04-02 02:04:00,
2013-04-01 22:09:00,33.7,14.1,29.51,WNW,287,6.0,11.5,44,0.00,CLR,SCT,0.05,WeatherDisplay:10.37,2013-04-02 02:09:00,
2013-04-01 22:14:00,33.5,14.4,29.51,NW,309,5.1,7.0,45,0.00,CLR,SCT,0.05,WeatherDisplay:10.37,2013-04-02 02:14:00,
2013-04-01 22:19:00,33.5,14.4,29.51,NNW,336,4.7,5.8,45,0.00,CLR,SCT,0.05,WeatherDisplay:10.37,2013-04-02 02:19:00,
2013-04-01 22:24:00,33.3,14.7,29.51,WNW,293,5.8,6.9,46,0.00,CLR,SCT,0.05,WeatherDisplay:10.37,2013-04-02 02:24:00,
2013-04-01 22:29:00,33.2,15.1,29.51,WNW,299,3.7,5.8,47,0.00,CLR,SCT,0.05,WeatherDisplay:10.37,2013-04-02 02:29:00,
2013-04-01 22:34:00,33.0,14.9,29.51,NW,311,4.0,4.6,47,0.00,CLR,SCT,0.05,WeatherDisplay:10.37,2013-04-02 02:34:00,
2013-04-01 22:39:00,32.8,14.8,29.51,West,281,6.2,11.5,47,0.00,CLR,SCT,0.05,WeatherDisplay:10.37,2013-04-02 02:39:00,
2013-04-01 22:44:00,32.9,14.4,29.52,WNW,288,2.9,5.8,46,0.00,CLR,SCT,0.05,WeatherDisplay:10.37,2013-04-02 02:44:00,
2013-04-01 22:49:00,32.7,15.1,29.52,NNW,333,5.6,11.5,48,0.00,CLR,SCT,0.05,WeatherDisplay:10.37,2013-04-02 02:49:00,
2013-04-01 22:54:00,32.5,15.0,29.52,WNW,289,2.9,4.6,48,0.00,CLR,SCT,0.05,WeatherDisplay:10.37,2013-04-02 02:54:00,
2013-04-01 22:59:00,32.3,15.3,29.52,NW,308,5.9,9.0,49,0.00,CLR,SCT,0.05,WeatherDisplay:10.37,2013-04-02 02:59:00,
2013-04-01 23:04:00,32.3,14.8,29.52,WSW,244,7.3,13.8,48,0.00,CLR,SCT,0.05,WeatherDisplay:10.37,2013-04-02 03:04:00,
2013-04-01 23:09:00,32.3,15.3,29.52,WNW,282,4.7,8.0,49,0.00,CLR,SCT,0.05,WeatherDisplay:10.37,2013-04-02 03:09:00,
2013-04-01 23:14:00,32.3,14.3,29.52,NNW,332,8.8,12.0,47,0.00,CLR,SCT,0.05,WeatherDisplay:10.37,2013-04-02 03:14:00,
2013-04-01 23:19:00,32.2,14.2,29.53,WNW,293,6.1,8.1,47,0.00,CLR,SCT,0.05,WeatherDisplay:10.37,2013-04-02 03:19:00,
2013-04-01 23:24:00,32.0,15.0,29.53,NW,307,5.9,9.2,49,0.00,CLR,SCT,0.05,WeatherDisplay:10.37,2013-04-02 03:24:00,
2013-04-01 23:29:00,31.9,14.9,29.53,WNW,296,4.8,9.2,49,0.00,CLR,SCT,0.05,WeatherDisplay:10.37,2013-04-02 03:29:00,
2013-04-01 23:34:00,31.7,14.7,29.53,WNW,299,6.1,6.9,49,0.00,CLR,SCT,0.05,WeatherDisplay:10.37,2013-04-02 03:34:00,
2013-04-01 23:39:00,31.6,15.1,29.53,NNW,333,5.5,6.9,50,0.00,CLR,SCT,0.05,WeatherDisplay:10.37,2013-04-02 03:39:00,
2013-04-01 23:44:00,31.5,15.0,29.53,WNW,296,6.5,8.1,50,0.00,CLR,SCT,0.05,WeatherDisplay:10.37,2013-04-02 03:44:00,
2013-04-01 23:49:00,31.4,15.3,29.53,West,273,3.9,6.9,51,0.00,CLR,SCT,0.05,WeatherDisplay:10.37,2013-04-02 03:49:00,
2013-04-01 23:54:00,31.1,15.9,29.53,West,270,3.0,5.8,53,0.00,CLR,SCT,0.05,WeatherDisplay:10.37,2013-04-02 03:54:00,
2013-04-01 23:59:00,31.0,15.8,29.53,WNW,293,3.4,6.9,53,0.00,CLR,SCT,0.05,WeatherDisplay:10.37,2013-04-02 03:59:00,